Orbital Elements at Epoch 2459200.5 (2020-Dec-17.0) TDB
Reference: JPL 12 (heliocentric ecliptic J2000)
Element | Value | Uncertainty (1-sigma) | Units |
e | .1614736769465673 | 9.8222e-08 | |
a | 2.3234112377566 | 1.3047e-08 | au |
q | 1.948241482137067 | 2.2998e-07 | au |
i | 3.982570825498857 | 9.3509e-06 | deg |
node | 226.0248281513476 | 7.4385e-05 | deg |
peri | 324.8957292328776 | 7.6011e-05 | deg |
M | 223.1472452390688 | 1.7256e-05 | deg |
tp | 2459692.243466493565 (2022-Apr-22.74346649) | 6.4394e-05 | TDB |
period | 1293.562911809369 3.54 | 1.0896e-05 2.983e-08 | d yr |
n | .2783011144749432 | 2.3442e-09 | deg/d |
Q | 2.698580993376134 | 1.5154e-08 | au |
|
| | Orbit Determination Parameters
Additional Information
|